START_TIME,STEP,MOV.,EG07,t_acc.,EG08,t_acc.,EG09,t_acc.,EB05,t_acc.,EBP05,t_acc.
1981-08-31 00:00:23.330 ,5,0,0.,1.2,0.,1.2,0.,1.2,,0.0,,0.0
1981-08-31 00:00:24.530 ,5,0,0.,1.2,0.,1.2,0.,1.2,,0.0,,0.0
1981-08-31 00:00:25.730 ,5,0,0.,1.2,0.,1.2,0.,1.2,,0.0,,0.0
1981-08-31 00:00:26.930 ,5,0,0.,1.2,0.,1.2,0.,1.2,,0.0,,0.0
1981-08-31 00:00:28.130 ,5,0,0.,1.2,0.,1.2,0.,1.2,,0.0,,0.0
1981-08-31 00:00:29.330 ,5,0,0.,1.2,0.,1.2,0.,1.2,,0.0,,0.0
1981-08-31 00:00:30.530 ,5,0,0.,1.2,0.,1.2,0.,1.2,,0.0,,0.0
1981-08-31 00:00:31.730 ,5,0,0.,1.2,0.,1.2,0.,1.2,,0.0,,0.0
1981-08-31 00:00:32.930 ,5,0,0.,1.2,0.,1.2,0.,1.2,,0.0,,0.0
1981-08-31 00:00:34.130 ,5,0,0.,1.2,0.,1.2,0.,1.2,,0.0,,0.0
1981-08-31 00:00:35.330 ,5,0,1.,1.2,0.,1.2,0.,1.2,,0.0,,0.0
1981-08-31 00:00:36.530 ,5,0,0.,1.2,0.,1.2,0.,1.2,,0.0,,0.0
1981-08-31 00:00:37.730 ,5,0,0.,1.2,0.,1.2,0.,1.2,,0.0,,0.0
1981-08-31 00:00:38.930 ,5,0,0.,1.2,0.,1.2,0.,1.2,,0.0,,0.0
1981-08-31 00:00:40.130 ,5,0,1.,1.2,0.,1.2,0.,1.2,,0.0,,0.0
1981-08-31 00:00:41.330 ,5,0,0.,1.2,0.,1.2,0.,1.2,,0.0,,0.0
1981-08-31 00:00:42.530 ,5,0,0.,1.2,0.,1.2,0.,1.2,,0.0,,0.0
1981-08-31 00:00:43.730 ,5,0,1.,1.2,1.,1.2,0.,1.2,,0.0,,0.0
1981-08-31 00:00:44.930 ,5,0,0.,1.2,0.,1.2,0.,1.2,,0.0,,0.0
1981-08-31 00:00:46.130 ,5,0,0.,1.2,0.,1.2,0.,1.2,,0.0,,0.0
1981-08-31 00:00:47.330 ,4,0,0.,1.2,0.,1.2,0.,1.2,,0.0,,0.0
1981-08-31 00:00:48.530 ,4,0,0.,1.2,0.,1.2,0.,1.2,,0.0,,0.0
1981-08-31 00:00:49.730 ,4,0,0.,1.2,0.,1.2,0.,1.2,,0.0,,0.0
1981-08-31 00:00:50.930 ,4,0,0.,1.2,0.,1.2,0.,1.2,,0.0,,0.0
1981-08-31 00:00:52.130 ,4,0,0.,1.2,0.,1.2,0.,1.2,,0.0,,0.0
1981-08-31 00:00:53.330 ,4,0,1.,1.2,0.,1.2,0.,1.2,,0.0,,0.0
1981-08-31 00:00:54.530 ,4,0,0.,1.2,0.,1.2,0.,1.2,,0.0,,0.0
1981-08-31 00:00:55.730 ,4,0,0.,1.2,0.,1.2,0.,1.2,,0.0,,0.0
1981-08-31 00:00:56.930 ,4,0,0.,1.2,0.,1.2,0.,1.2,,0.0,,0.0
1981-08-31 00:00:58.130 ,4,0,0.,1.2,0.,1.2,0.,1.2,,0.0,,0.0
1981-08-31 00:00:59.330 ,4,0,0.,1.2,0.,1.2,0.,1.2,,0.0,,0.0
1981-08-31 00:01:00.530 ,4,0,0.,1.2,0.,1.2,0.,1.2,,0.0,,0.0
1981-08-31 00:01:01.730 ,4,0,1.,1.2,1.,1.2,0.,1.2,,0.0,,0.0
1981-08-31 00:01:02.930 ,4,0,0.,1.2,0.,1.2,0.,1.2,,0.0,,0.0
1981-08-31 00:01:04.130 ,4,0,0.,1.2,0.,1.2,0.,1.2,,0.0,,0.0
1981-08-31 00:01:05.330 ,4,0,1.,1.2,1.,1.2,1.,1.2,,0.0,,0.0
1981-08-31 00:01:06.530 ,4,0,0.,1.2,0.,1.2,0.,1.2,,0.0,,0.0
1981-08-31 00:01:07.730 ,4,0,0.,1.2,0.,1.2,0.,1.2,,0.0,,0.0
1981-08-31 00:01:08.930 ,4,0,0.,1.2,0.,1.2,0.,1.2,,0.0,,0.0
1981-08-31 00:01:10.130 ,4,0,1.,1.2,1.,1.2,0.,1.2,,0.0,,0.0
1981-08-31 00:01:11.330 ,4,0,0.,1.2,0.,1.2,0.,1.2,,0.0,,0.0
1981-08-31 00:01:12.530 ,4,0,0.,1.2,0.,1.2,0.,1.2,,0.0,,0.0
1981-08-31 00:01:13.730 ,4,0,0.,1.2,0.,1.2,0.,1.2,,0.0,,0.0
1981-08-31 00:01:14.930 ,4,0,0.,1.2,0.,1.2,0.,1.2,,0.0,,0.0
1981-08-31 00:01:16.130 ,4,0,0.,1.2,0.,1.2,0.,1.2,,0.0,,0.0
1981-08-31 00:01:17.330 ,4,0,0.,1.2,0.,1.2,0.,1.2,,0.0,,0.0
1981-08-31 00:01:18.530 ,4,0,0.,1.2,0.,1.2,0.,1.2,,0.0,,0.0
1981-08-31 00:01:19.730 ,4,0,0.,1.2,0.,1.2,0.,1.2,,0.0,,0.0
1981-08-31 00:01:20.930 ,4,0,0.,1.2,0.,1.2,0.,1.2,,0.0,,0.0
1981-08-31 00:01:22.130 ,4,0,0.,1.2,0.,1.2,0.,1.2,,0.0,,0.0
1981-08-31 00:01:23.330 ,4,0,0.,1.2,0.,1.2,0.,1.2,,0.0,,0.0
1981-08-31 00:01:24.530 ,4,0,0.,1.2,0.,1.2,0.,1.2,,0.0,,0.0
1981-08-31 00:01:25.730 ,4,0,0.,1.2,0.,1.2,0.,1.2,,0.0,,0.0
1981-08-31 00:01:26.930 ,4,0,0.,1.2,0.,1.2,0.,1.2,,0.0,,0.0
1981-08-31 00:01:28.130 ,4,0,0.,1.2,0.,1.2,0.,1.2,,0.0,,0.0
1981-08-31 00:01:29.330 ,4,0,0.,1.2,0.,1.2,0.,1.2,,0.0,,0.0
1981-08-31 00:01:30.530 ,4,0,0.,1.2,0.,1.2,0.,1.2,,0.0,,0.0
1981-08-31 00:01:31.730 ,4,0,1.,1.2,1.,1.2,0.,1.2,,0.0,,0.0
1981-08-31 00:01:32.930 ,4,0,1.,1.2,0.,1.2,0.,1.2,,0.0,,0.0
1981-08-31 00:01:34.130 ,4,0,0.,1.2,0.,1.2,0.,1.2,,0.0,,0.0
1981-08-31 00:01:35.330 ,3,0,0.,1.2,0.,1.2,0.,1.2,,0.0,,0.0
1981-08-31 00:01:36.530 ,3,0,0.,1.2,0.,1.2,0.,1.2,,0.0,,0.0
1981-08-31 00:01:37.730 ,3,0,0.,1.2,0.,1.2,0.,1.2,,0.0,,0.0
1981-08-31 00:01:38.930 ,3,0,0.,1.2,0.,1.2,0.,1.2,,0.0,,0.0
1981-08-31 00:01:40.130 ,3,0,2.,1.2,1.,1.2,0.,1.2,,0.0,,0.0
1981-08-31 00:01:41.330 ,3,0,0.,1.2,0.,1.2,0.,1.2,,0.0,,0.0
1981-08-31 00:01:42.530 ,3,0,0.,1.2,0.,1.2,0.,1.2,,0.0,,0.0
1981-08-31 00:01:43.730 ,3,0,1.,1.2,0.,1.2,0.,1.2,,0.0,,0.0
1981-08-31 00:01:44.930 ,3,0,1.,1.2,1.,1.2,0.,1.2,,0.0,,0.0
1981-08-31 00:01:46.130 ,3,0,0.,1.2,0.,1.2,0.,1.2,,0.0,,0.0
1981-08-31 00:01:47.330 ,3,0,0.,1.2,0.,1.2,0.,1.2,,0.0,,0.0
1981-08-31 00:01:48.530 ,3,0,0.,1.2,0.,1.2,0.,1.2,,0.0,,0.0
1981-08-31 00:01:49.730 ,3,0,0.,1.2,0.,1.2,0.,1.2,,0.0,,0.0
1981-08-31 00:01:50.930 ,3,0,0.,1.2,0.,1.2,0.,1.2,,0.0,,0.0
1981-08-31 00:01:52.130 ,3,0,0.,1.2,0.,1.2,0.,1.2,,0.0,,0.0
1981-08-31 00:01:53.330 ,3,0,0.,1.2,0.,1.2,0.,1.2,,0.0,,0.0
1981-08-31 00:01:54.530 ,3,0,0.,1.2,0.,1.2,0.,1.2,,0.0,,0.0
1981-08-31 00:01:55.730 ,3,0,0.,1.2,0.,1.2,0.,1.2,,0.0,,0.0
1981-08-31 00:01:56.930 ,3,0,0.,1.2,0.,1.2,0.,1.2,,0.0,,0.0
1981-08-31 00:01:58.130 ,3,0,1.,1.2,1.,1.2,0.,1.2,,0.0,,0.0
1981-08-31 00:01:59.330 ,2,0,1.,1.2,0.,1.2,0.,1.2,,0.0,,0.0
1981-08-31 00:02:00.530 ,2,0,0.,1.2,0.,1.2,0.,1.2,,0.0,,0.0
1981-08-31 00:02:01.730 ,2,0,0.,1.2,0.,1.2,0.,1.2,,0.0,,0.0
1981-08-31 00:02:02.930 ,2,0,0.,1.2,0.,1.2,0.,1.2,,0.0,,0.0
1981-08-31 00:02:04.130 ,2,0,0.,1.2,0.,1.2,0.,1.2,,0.0,,0.0
1981-08-31 00:02:05.330 ,2,0,0.,1.2,0.,1.2,0.,1.2,,0.0,,0.0
1981-08-31 00:02:06.530 ,2,0,0.,1.2,0.,1.2,0.,1.2,,0.0,,0.0
1981-08-31 00:02:07.730 ,2,0,0.,1.2,0.,1.2,0.,1.2,,0.0,,0.0
1981-08-31 00:02:08.930 ,2,0,1.,1.2,0.,1.2,0.,1.2,,0.0,,0.0
1981-08-31 00:02:10.130 ,2,0,0.,1.2,0.,1.2,0.,1.2,,0.0,,0.0
1981-08-31 00:02:11.330 ,2,0,0.,1.2,0.,1.2,0.,1.2,,0.0,,0.0
1981-08-31 00:02:12.530 ,2,0,1.,1.2,0.,1.2,0.,1.2,,0.0,,0.0
1981-08-31 00:02:13.730 ,2,0,0.,1.2,0.,1.2,0.,1.2,,0.0,,0.0
1981-08-31 00:02:14.930 ,2,0,0.,1.2,0.,1.2,0.,1.2,,0.0,,0.0
1981-08-31 00:02:16.130 ,2,0,0.,1.2,0.,1.2,0.,1.2,,0.0,,0.0
1981-08-31 00:02:17.330 ,2,0,0.,1.2,0.,1.2,0.,1.2,,0.0,,0.0
1981-08-31 00:02:18.530 ,2,0,0.,1.2,0.,1.2,0.,1.2,,0.0,,0.0
1981-08-31 00:02:19.730 ,2,0,0.,1.2,0.,1.2,0.,1.2,,0.0,,0.0
1981-08-31 00:02:20.930 ,2,0,0.,1.2,0.,1.2,0.,1.2,,0.0,,0.0
1981-08-31 00:02:22.130 ,2,0,0.,1.2,0.,1.2,0.,1.2,,0.0,,0.0
1981-08-31 00:02:23.330 ,1,0,0.,1.2,0.,1.2,0.,1.2,,0.0,,0.0
1981-08-31 00:02:24.530 ,1,0,0.,1.2,0.,1.2,0.,1.2,,0.0,,0.0
1981-08-31 00:02:25.730 ,1,0,0.,1.2,0.,1.2,0.,1.2,,0.0,,0.0
1981-08-31 00:02:26.930 ,1,0,1.,1.2,0.,1.2,0.,1.2,,0.0,,0.0
1981-08-31 00:02:28.130 ,1,0,0.,1.2,0.,1.2,0.,1.2,,0.0,,0.0
1981-08-31 00:02:29.330 ,1,0,0.,1.2,0.,1.2,0.,1.2,,0.0,,0.0
1981-08-31 00:02:30.530 ,1,0,0.,1.2,0.,1.2,0.,1.2,,0.0,,0.0
1981-08-31 00:02:31.730 ,1,0,0.,1.2,0.,1.2,0.,1.2,,0.0,,0.0
1981-08-31 00:02:32.930 ,1,0,0.,1.2,0.,1.2,0.,1.2,,0.0,,0.0
1981-08-31 00:02:34.130 ,1,0,0.,1.2,0.,1.2,0.,1.2,,0.0,,0.0
1981-08-31 00:02:35.330 ,1,0,0.,1.2,0.,1.2,0.,1.2,,0.0,,0.0
1981-08-31 00:02:36.530 ,1,0,0.,1.2,0.,1.2,0.,1.2,,0.0,,0.0
1981-08-31 00:02:37.730 ,1,0,1.,1.2,1.,1.2,0.,1.2,,0.0,,0.0
1981-08-31 00:02:38.930 ,1,0,0.,1.2,0.,1.2,0.,1.2,,0.0,,0.0
1981-08-31 00:02:40.130 ,1,0,0.,1.2,0.,1.2,0.,1.2,,0.0,,0.0
1981-08-31 00:02:41.330 ,1,0,0.,1.2,0.,1.2,0.,1.2,,0.0,,0.0
1981-08-31 00:02:42.530 ,1,0,0.,1.2,0.,1.2,0.,1.2,,0.0,,0.0
1981-08-31 00:02:43.730 ,1,0,1.,1.2,1.,1.2,0.,1.2,,0.0,,0.0
1981-08-31 00:02:44.930 ,1,0,0.,1.2,0.,1.2,0.,1.2,,0.0,,0.0
1981-08-31 00:02:46.130 ,1,0,0.,1.2,0.,1.2,0.,1.2,,0.0,,0.0
1981-08-31 00:02:47.330 ,0,0,0.,1.2,0.,1.2,0.,1.2,,0.0,,0.0
1981-08-31 00:02:48.530 ,0,0,0.,1.2,0.,1.2,0.,1.2,,0.0,,0.0
1981-08-31 00:02:49.730 ,0,0,0.,1.2,0.,1.2,0.,1.2,,0.0,,0.0
1981-08-31 00:02:50.930 ,0,0,0.,1.2,0.,1.2,0.,1.2,,0.0,,0.0
1981-08-31 00:02:52.130 ,0,0,0.,1.2,0.,1.2,0.,1.2,,0.0,,0.0
1981-08-31 00:02:53.330 ,0,0,1.,1.2,0.,1.2,0.,1.2,,0.0,,0.0
1981-08-31 00:02:54.530 ,0,0,0.,1.2,0.,1.2,0.,1.2,,0.0,,0.0
1981-08-31 00:02:55.730 ,0,0,0.,1.2,0.,1.2,0.,1.2,,0.0,,0.0
1981-08-31 00:02:56.930 ,0,0,0.,1.2,0.,1.2,0.,1.2,,0.0,,0.0
1981-08-31 00:02:58.130 ,0,0,0.,1.2,0.,1.2,0.,1.2,,0.0,,0.0
1981-08-31 00:02:59.330 ,0,0,0.,1.2,0.,1.2,0.,1.2,,0.0,,0.0
1981-08-31 00:03:00.530 ,0,0,2.,1.2,1.,1.2,0.,1.2,,0.0,,0.0
1981-08-31 00:03:01.730 ,0,0,0.,1.2,0.,1.2,0.,1.2,,0.0,,0.0
1981-08-31 00:03:02.930 ,0,0,0.,1.2,0.,1.2,0.,1.2,,0.0,,0.0
1981-08-31 00:03:04.130 ,0,0,0.,1.2,0.,1.2,0.,1.2,,0.0,,0.0
1981-08-31 00:03:05.330 ,0,0,1.,1.2,0.,1.2,0.,1.2,,0.0,,0.0
1981-08-31 00:03:06.530 ,0,0,0.,1.2,0.,1.2,0.,1.2,,0.0,,0.0
1981-08-31 00:03:07.730 ,0,0,0.,1.2,0.,1.2,0.,1.2,,0.0,,0.0
1981-08-31 00:03:08.930 ,0,0,0.,1.2,0.,1.2,0.,1.2,,0.0,,0.0
1981-08-31 00:03:10.130 ,0,0,0.,1.2,0.,1.2,0.,1.2,,0.0,,0.0
1981-08-31 00:03:11.330 ,0,0,0.,1.2,0.,1.2,0.,1.2,,0.0,,0.0
1981-08-31 00:03:12.530 ,0,0,0.,1.2,0.,1.2,0.,1.2,,0.0,,0.0
1981-08-31 00:03:13.730 ,0,0,1.,1.2,0.,1.2,0.,1.2,,0.0,,0.0
1981-08-31 00:03:14.930 ,0,0,0.,1.2,0.,1.2,0.,1.2,,0.0,,0.0
1981-08-31 00:03:16.130 ,0,0,1.,1.2,0.,1.2,0.,1.2,,0.0,,0.0
1981-08-31 00:03:17.330 ,0,0,0.,1.2,0.,1.2,0.,1.2,,0.0,,0.0
1981-08-31 00:03:18.530 ,0,0,0.,1.2,0.,1.2,0.,1.2,,0.0,,0.0
1981-08-31 00:03:19.730 ,0,0,0.,1.2,0.,1.2,0.,1.2,,0.0,,0.0
1981-08-31 00:03:20.930 ,0,0,0.,1.2,0.,1.2,0.,1.2,,0.0,,0.0
1981-08-31 00:03:22.130 ,0,0,0.,1.2,0.,1.2,0.,1.2,,0.0,,0.0
1981-08-31 00:03:23.330 ,0,0,0.,1.2,0.,1.2,0.,1.2,,0.0,,0.0
1981-08-31 00:03:24.530 ,0,0,0.,1.2,0.,1.2,0.,1.2,,0.0,,0.0
1981-08-31 00:03:25.730 ,0,0,0.,1.2,0.,1.2,0.,1.2,,0.0,,0.0
1981-08-31 00:03:26.930 ,0,0,1.,1.2,0.,1.2,0.,1.2,,0.0,,0.0
1981-08-31 00:03:28.130 ,0,0,0.,1.2,0.,1.2,0.,1.2,,0.0,,0.0
1981-08-31 00:03:29.330 ,0,0,1.,1.2,0.,1.2,0.,1.2,,0.0,,0.0
1981-08-31 00:03:30.530 ,0,0,0.,1.2,0.,1.2,0.,1.2,,0.0,,0.0
1981-08-31 00:03:31.730 ,0,0,0.,1.2,0.,1.2,0.,1.2,,0.0,,0.0
1981-08-31 00:03:32.930 ,0,0,0.,1.2,0.,1.2,0.,1.2,,0.0,,0.0
1981-08-31 00:03:34.130 ,0,0,0.,1.2,0.,1.2,0.,1.2,,0.0,,0.0
1981-08-31 00:03:35.330 ,1,0,0.,1.2,0.,1.2,0.,1.2,,0.0,,0.0
1981-08-31 00:03:36.530 ,1,0,0.,1.2,0.,1.2,0.,1.2,,0.0,,0.0
1981-08-31 00:03:37.730 ,1,0,0.,1.2,0.,1.2,0.,1.2,,0.0,,0.0
1981-08-31 00:03:38.930 ,1,0,0.,1.2,0.,1.2,0.,1.2,,0.0,,0.0
1981-08-31 00:03:40.130 ,1,0,0.,1.2,0.,1.2,0.,1.2,,0.0,,0.0
1981-08-31 00:03:41.330 ,1,0,0.,1.2,0.,1.2,0.,1.2,,0.0,,0.0
1981-08-31 00:03:42.530 ,1,0,0.,1.2,0.,1.2,0.,1.2,,0.0,,0.0
1981-08-31 00:03:43.730 ,1,0,0.,1.2,0.,1.2,0.,1.2,,0.0,,0.0
1981-08-31 00:03:44.930 ,1,0,0.,1.2,0.,1.2,0.,1.2,,0.0,,0.0
1981-08-31 00:03:46.130 ,1,0,1.,1.2,0.,1.2,0.,1.2,,0.0,,0.0
1981-08-31 00:03:47.330 ,1,0,0.,1.2,0.,1.2,0.,1.2,,0.0,,0.0
1981-08-31 00:03:48.530 ,1,0,0.,1.2,0.,1.2,0.,1.2,,0.0,,0.0
1981-08-31 00:03:49.730 ,1,0,0.,1.2,0.,1.2,0.,1.2,,0.0,,0.0
1981-08-31 00:03:50.930 ,1,0,0.,1.2,0.,1.2,0.,1.2,,0.0,,0.0
1981-08-31 00:03:52.130 ,1,0,0.,1.2,0.,1.2,0.,1.2,,0.0,,0.0
1981-08-31 00:03:53.330 ,1,0,0.,1.2,0.,1.2,0.,1.2,,0.0,,0.0
1981-08-31 00:03:54.530 ,1,0,0.,1.2,0.,1.2,0.,1.2,,0.0,,0.0
1981-08-31 00:03:55.730 ,1,0,0.,1.2,0.,1.2,0.,1.2,,0.0,,0.0
1981-08-31 00:03:56.930 ,1,0,1.,1.2,1.,1.2,1.,1.2,,0.0,,0.0
1981-08-31 00:03:58.130 ,1,0,0.,1.2,0.,1.2,0.,1.2,,0.0,,0.0
1981-08-31 00:03:59.330 ,2,0,0.,1.2,0.,1.2,0.,1.2,,0.0,,0.0
1981-08-31 00:04:00.530 ,2,0,0.,1.2,0.,1.2,0.,1.2,,0.0,,0.0
1981-08-31 00:04:01.730 ,2,0,0.,1.2,0.,1.2,0.,1.2,,0.0,,0.0
1981-08-31 00:04:02.930 ,2,0,0.,1.2,0.,1.2,0.,1.2,,0.0,,0.0
1981-08-31 00:04:04.130 ,2,0,0.,1.2,0.,1.2,0.,1.2,,0.0,,0.0
1981-08-31 00:04:05.330 ,2,0,0.,1.2,0.,1.2,0.,1.2,,0.0,,0.0
1981-08-31 00:04:06.530 ,2,0,0.,1.2,0.,1.2,0.,1.2,,0.0,,0.0
1981-08-31 00:04:07.730 ,2,0,0.,1.2,0.,1.2,0.,1.2,,0.0,,0.0
1981-08-31 00:04:08.930 ,2,0,0.,1.2,0.,1.2,0.,1.2,,0.0,,0.0
1981-08-31 00:04:10.130 ,2,0,0.,1.2,0.,1.2,0.,1.2,,0.0,,0.0
1981-08-31 00:04:11.330 ,2,0,0.,1.2,0.,1.2,0.,1.2,,0.0,,0.0
1981-08-31 00:04:12.530 ,2,0,0.,1.2,0.,1.2,0.,1.2,,0.0,,0.0
1981-08-31 00:04:13.730 ,2,0,0.,1.2,0.,1.2,0.,1.2,,0.0,,0.0
1981-08-31 00:04:14.930 ,2,0,0.,1.2,0.,1.2,0.,1.2,,0.0,,0.0
1981-08-31 00:04:16.130 ,2,0,1.,1.2,1.,1.2,1.,1.2,,0.0,,0.0
1981-08-31 00:04:17.330 ,2,0,0.,1.2,0.,1.2,0.,1.2,,0.0,,0.0
1981-08-31 00:04:18.530 ,2,0,0.,1.2,0.,1.2,0.,1.2,,0.0,,0.0
1981-08-31 00:04:19.730 ,2,0,0.,1.2,0.,1.2,0.,1.2,,0.0,,0.0
1981-08-31 00:04:20.930 ,2,0,0.,1.2,0.,1.2,0.,1.2,,0.0,,0.0
1981-08-31 00:04:22.130 ,2,0,2.,1.2,0.,1.2,0.,1.2,,0.0,,0.0
1981-08-31 00:04:23.330 ,3,0,0.,1.2,0.,1.2,0.,1.2,,0.0,,0.0
1981-08-31 00:04:24.530 ,3,0,0.,1.2,0.,1.2,0.,1.2,,0.0,,0.0
1981-08-31 00:04:25.730 ,3,0,0.,1.2,0.,1.2,0.,1.2,,0.0,,0.0
1981-08-31 00:04:26.930 ,3,0,0.,1.2,0.,1.2,0.,1.2,,0.0,,0.0
1981-08-31 00:04:28.130 ,3,0,0.,1.2,0.,1.2,0.,1.2,,0.0,,0.0
1981-08-31 00:04:29.330 ,3,0,0.,1.2,0.,1.2,0.,1.2,,0.0,,0.0
1981-08-31 00:04:30.530 ,3,0,0.,1.2,0.,1.2,0.,1.2,,0.0,,0.0
1981-08-31 00:04:31.730 ,3,0,0.,1.2,0.,1.2,0.,1.2,,0.0,,0.0
1981-08-31 00:04:32.930 ,3,0,0.,1.2,0.,1.2,0.,1.2,,0.0,,0.0
1981-08-31 00:04:34.130 ,3,0,0.,1.2,0.,1.2,0.,1.2,,0.0,,0.0
1981-08-31 00:04:35.330 ,3,0,0.,1.2,0.,1.2,0.,1.2,,0.0,,0.0
1981-08-31 00:04:36.530 ,3,0,0.,1.2,0.,1.2,0.,1.2,,0.0,,0.0
1981-08-31 00:04:37.730 ,3,0,0.,1.2,0.,1.2,0.,1.2,,0.0,,0.0
1981-08-31 00:04:38.930 ,3,0,0.,1.2,0.,1.2,0.,1.2,,0.0,,0.0
1981-08-31 00:04:40.130 ,3,0,0.,1.2,0.,1.2,0.,1.2,,0.0,,0.0
1981-08-31 00:04:41.330 ,3,0,0.,1.2,0.,1.2,0.,1.2,,0.0,,0.0
1981-08-31 00:04:42.530 ,3,0,0.,1.2,0.,1.2,0.,1.2,,0.0,,0.0
1981-08-31 00:04:43.730 ,3,0,0.,1.2,0.,1.2,0.,1.2,,0.0,,0.0
1981-08-31 00:04:44.930 ,3,0,0.,1.2,0.,1.2,0.,1.2,,0.0,,0.0
1981-08-31 00:04:46.130 ,3,0,0.,1.2,0.,1.2,0.,1.2,,0.0,,0.0
1981-08-31 00:04:47.330 ,4,0,0.,1.2,0.,1.2,0.,1.2,,0.0,,0.0
1981-08-31 00:04:48.530 ,4,0,0.,1.2,0.,1.2,0.,1.2,,0.0,,0.0
1981-08-31 00:04:49.730 ,4,0,0.,1.2,0.,1.2,0.,1.2,,0.0,,0.0
1981-08-31 00:04:50.930 ,4,0,0.,1.2,0.,1.2,0.,1.2,,0.0,,0.0
1981-08-31 00:04:52.130 ,4,0,0.,1.2,0.,1.2,0.,1.2,,0.0,,0.0
1981-08-31 00:04:53.330 ,4,0,0.,1.2,0.,1.2,0.,1.2,,0.0,,0.0
1981-08-31 00:04:54.530 ,4,0,0.,1.2,0.,1.2,0.,1.2,,0.0,,0.0
1981-08-31 00:04:55.730 ,4,0,0.,1.2,0.,1.2,0.,1.2,,0.0,,0.0
1981-08-31 00:04:56.930 ,4,0,0.,1.2,0.,1.2,0.,1.2,,0.0,,0.0
1981-08-31 00:04:58.130 ,4,0,0.,1.2,0.,1.2,0.,1.2,,0.0,,0.0
1981-08-31 00:04:59.330 ,4,0,0.,1.2,0.,1.2,0.,1.2,,0.0,,0.0
1981-08-31 00:05:00.530 ,4,0,1.,1.2,0.,1.2,0.,1.2,,0.0,,0.0
1981-08-31 00:05:01.730 ,4,0,0.,1.2,0.,1.2,0.,1.2,,0.0,,0.0
1981-08-31 00:05:02.930 ,4,0,0.,1.2,0.,1.2,0.,1.2,,0.0,,0.0
1981-08-31 00:05:04.130 ,4,0,0.,1.2,0.,1.2,0.,1.2,,0.0,,0.0
1981-08-31 00:05:05.330 ,4,0,0.,1.2,0.,1.2,0.,1.2,,0.0,,0.0
1981-08-31 00:05:06.530 ,4,0,0.,1.2,0.,1.2,0.,1.2,,0.0,,0.0
1981-08-31 00:05:07.730 ,4,0,0.,1.2,0.,1.2,0.,1.2,,0.0,,0.0
1981-08-31 00:05:08.930 ,4,0,0.,1.2,0.,1.2,0.,1.2,,0.0,,0.0
1981-08-31 00:05:10.130 ,4,0,0.,1.2,0.,1.2,0.,1.2,,0.0,,0.0
1981-08-31 00:05:11.330 ,5,0,0.,1.2,0.,1.2,0.,1.2,,0.0,,0.0
1981-08-31 00:05:12.530 ,5,0,0.,1.2,0.,1.2,0.,1.2,,0.0,,0.0
1981-08-31 00:05:13.730 ,5,0,0.,1.2,0.,1.2,0.,1.2,,0.0,,0.0
1981-08-31 00:05:14.930 ,5,0,0.,1.2,0.,1.2,0.,1.2,,0.0,,0.0
1981-08-31 00:05:16.130 ,5,0,0.,1.2,0.,1.2,0.,1.2,,0.0,,0.0
1981-08-31 00:05:17.330 ,5,0,0.,1.2,0.,1.2,0.,1.2,,0.0,,0.0
1981-08-31 00:05:18.530 ,5,0,0.,1.2,0.,1.2,0.,1.2,,0.0,,0.0
1981-08-31 00:05:19.730 ,5,0,0.,1.2,0.,1.2,0.,1.2,,0.0,,0.0
1981-08-31 00:05:20.930 ,5,0,0.,1.2,0.,1.2,0.,1.2,,0.0,,0.0
1981-08-31 00:05:22.130 ,5,0,0.,1.2,0.,1.2,0.,1.2,,0.0,,0.0
1981-08-31 00:05:23.330 ,5,0,0.,1.2,0.,1.2,0.,1.2,,0.0,,0.0
1981-08-31 00:05:24.530 ,5,0,0.,1.2,0.,1.2,0.,1.2,,0.0,,0.0
1981-08-31 00:05:25.730 ,5,0,0.,1.2,0.,1.2,0.,1.2,,0.0,,0.0
1981-08-31 00:05:26.930 ,5,0,0.,1.2,0.,1.2,0.,1.2,,0.0,,0.0
1981-08-31 00:05:28.130 ,5,0,1.,1.2,0.,1.2,0.,1.2,,0.0,,0.0
1981-08-31 00:05:29.330 ,5,0,0.,1.2,0.,1.2,0.,1.2,,0.0,,0.0
1981-08-31 00:05:30.530 ,5,0,0.,1.2,0.,1.2,0.,1.2,,0.0,,0.0
1981-08-31 00:05:31.730 ,5,0,2.,1.2,0.,1.2,0.,1.2,,0.0,,0.0
1981-08-31 00:05:32.930 ,5,0,0.,1.2,0.,1.2,0.,1.2,,0.0,,0.0
1981-08-31 00:05:34.130 ,5,0,1.,1.2,0.,1.2,0.,1.2,,0.0,,0.0
1981-08-31 00:05:35.330 ,6,0,1.,1.2,0.,1.2,0.,1.2,,0.0,,0.0
1981-08-31 00:05:36.530 ,6,0,0.,1.2,0.,1.2,0.,1.2,,0.0,,0.0
1981-08-31 00:05:37.730 ,6,0,0.,1.2,0.,1.2,0.,1.2,,0.0,,0.0
1981-08-31 00:05:38.930 ,6,0,0.,1.2,0.,1.2,0.,1.2,,0.0,,0.0
1981-08-31 00:05:40.130 ,6,0,0.,1.2,0.,1.2,0.,1.2,,0.0,,0.0
1981-08-31 00:05:41.330 ,6,0,0.,1.2,0.,1.2,0.,1.2,,0.0,,0.0
1981-08-31 00:05:42.530 ,6,0,0.,1.2,0.,1.2,0.,1.2,,0.0,,0.0
1981-08-31 00:05:43.730 ,6,0,0.,1.2,0.,1.2,0.,1.2,,0.0,,0.0
1981-08-31 00:05:44.930 ,6,0,2.,1.2,1.,1.2,0.,1.2,,0.0,,0.0
1981-08-31 00:05:46.130 ,6,0,0.,1.2,0.,1.2,0.,1.2,,0.0,,0.0
1981-08-31 00:05:47.330 ,6,0,0.,1.2,0.,1.2,0.,1.2,,0.0,,0.0
1981-08-31 00:05:48.530 ,6,0,0.,1.2,0.,1.2,0.,1.2,,0.0,,0.0
1981-08-31 00:05:49.730 ,6,0,0.,1.2,0.,1.2,0.,1.2,,0.0,,0.0
1981-08-31 00:05:50.930 ,6,0,0.,1.2,0.,1.2,0.,1.2,,0.0,,0.0
1981-08-31 00:05:52.130 ,6,0,0.,1.2,0.,1.2,0.,1.2,,0.0,,0.0
1981-08-31 00:05:53.330 ,6,0,0.,1.2,0.,1.2,0.,1.2,,0.0,,0.0
1981-08-31 00:05:54.530 ,6,0,0.,1.2,0.,1.2,0.,1.2,,0.0,,0.0
1981-08-31 00:05:55.730 ,6,0,0.,1.2,0.,1.2,0.,1.2,,0.0,,0.0
1981-08-31 00:05:56.930 ,6,0,0.,1.2,0.,1.2,0.,1.2,,0.0,,0.0
1981-08-31 00:05:58.130 ,6,0,0.,1.2,0.,1.2,0.,1.2,,0.0,,0.0
1981-08-31 00:05:59.330 ,7,0,0.,1.2,0.,1.2,0.,1.2,,0.0,,0.0
1981-08-31 00:06:00.530 ,7,0,0.,1.2,0.,1.2,0.,1.2,,0.0,,0.0
1981-08-31 00:06:01.730 ,7,0,1.,1.2,1.,1.2,1.,1.2,,0.0,,0.0
1981-08-31 00:06:02.930 ,7,0,0.,1.2,0.,1.2,0.,1.2,,0.0,,0.0
1981-08-31 00:06:04.130 ,7,0,0.,1.2,0.,1.2,0.,1.2,,0.0,,0.0
1981-08-31 00:06:05.330 ,7,0,0.,1.2,0.,1.2,0.,1.2,,0.0,,0.0
1981-08-31 00:06:06.530 ,7,0,0.,1.2,0.,1.2,0.,1.2,,0.0,,0.0
1981-08-31 00:06:07.730 ,7,0,0.,1.2,0.,1.2,0.,1.2,,0.0,,0.0
1981-08-31 00:06:08.930 ,7,0,0.,1.2,0.,1.2,0.,1.2,,0.0,,0.0
1981-08-31 00:06:10.130 ,7,0,2.,1.2,0.,1.2,0.,1.2,,0.0,,0.0
1981-08-31 00:06:11.330 ,7,0,0.,1.2,0.,1.2,0.,1.2,,0.0,,0.0
1981-08-31 00:06:12.530 ,7,0,1.,1.2,0.,1.2,0.,1.2,,0.0,,0.0
1981-08-31 00:06:13.730 ,7,0,0.,1.2,0.,1.2,0.,1.2,,0.0,,0.0
1981-08-31 00:06:14.930 ,7,0,0.,1.2,0.,1.2,0.,1.2,,0.0,,0.0
1981-08-31 00:06:16.130 ,7,0,0.,1.2,0.,1.2,0.,1.2,,0.0,,0.0
1981-08-31 00:06:17.330 ,7,0,0.,1.2,0.,1.2,0.,1.2,,0.0,,0.0
1981-08-31 00:06:18.530 ,7,0,0.,1.2,0.,1.2,0.,1.2,,0.0,,0.0
1981-08-31 00:06:19.730 ,7,0,0.,1.2,0.,1.2,0.,1.2,,0.0,,0.0
1981-08-31 00:06:20.930 ,7,0,0.,1.2,0.,1.2,0.,1.2,,0.0,,0.0
1981-08-31 00:06:22.130 ,7,0,0.,1.2,0.,1.2,0.,1.2,,0.0,,0.0
1981-08-31 00:06:23.330 ,7,0,0.,1.2,0.,1.2,0.,1.2,,0.0,,0.0
1981-08-31 00:06:24.530 ,7,0,0.,1.2,0.,1.2,0.,1.2,,0.0,,0.0
1981-08-31 00:06:25.730 ,7,0,0.,1.2,0.,1.2,0.,1.2,,0.0,,0.0
1981-08-31 00:06:26.930 ,7,0,0.,1.2,0.,1.2,0.,1.2,,0.0,,0.0
1981-08-31 00:06:28.130 ,7,0,0.,1.2,0.,1.2,0.,1.2,,0.0,,0.0
1981-08-31 00:06:29.330 ,7,0,0.,1.2,0.,1.2,0.,1.2,,0.0,,0.0
1981-08-31 00:06:30.530 ,7,0,0.,1.2,0.,1.2,0.,1.2,,0.0,,0.0
1981-08-31 00:06:31.730 ,7,0,0.,1.2,0.,1.2,0.,1.2,,0.0,,0.0
1981-08-31 00:06:32.930 ,7,0,0.,1.2,0.,1.2,0.,1.2,,0.0,,0.0
1981-08-31 00:06:34.130 ,7,0,0.,1.2,0.,1.2,0.,1.2,,0.0,,0.0
1981-08-31 00:06:35.330 ,7,0,0.,1.2,0.,1.2,0.,1.2,,0.0,,0.0
1981-08-31 00:06:36.530 ,7,0,0.,1.2,0.,1.2,0.,1.2,,0.0,,0.0
1981-08-31 00:06:37.730 ,7,0,0.,1.2,0.,1.2,0.,1.2,,0.0,,0.0
1981-08-31 00:06:38.930 ,7,0,1.,1.2,0.,1.2,0.,1.2,,0.0,,0.0
1981-08-31 00:06:40.130 ,7,0,0.,1.2,0.,1.2,0.,1.2,,0.0,,0.0
1981-08-31 00:06:41.330 ,7,0,0.,1.2,0.,1.2,0.,1.2,,0.0,,0.0
1981-08-31 00:06:42.530 ,7,0,0.,1.2,0.,1.2,0.,1.2,,0.0,,0.0
1981-08-31 00:06:43.730 ,7,0,0.,1.2,0.,1.2,0.,1.2,,0.0,,0.0
1981-08-31 00:06:44.930 ,7,0,0.,1.2,0.,1.2,0.,1.2,,0.0,,0.0
1981-08-31 00:06:46.130 ,7,0,0.,1.2,0.,1.2,0.,1.2,,0.0,,0.0
1981-08-31 00:06:47.330 ,6,0,0.,1.2,0.,1.2,0.,1.2,,0.0,,0.0
1981-08-31 00:06:48.530 ,6,0,0.,1.2,0.,1.2,0.,1.2,,0.0,,0.0
1981-08-31 00:06:49.730 ,6,0,0.,1.2,0.,1.2,0.,1.2,,0.0,,0.0
1981-08-31 00:06:50.930 ,6,0,0.,1.2,0.,1.2,0.,1.2,,0.0,,0.0
1981-08-31 00:06:52.130 ,6,0,0.,1.2,0.,1.2,0.,1.2,,0.0,,0.0
1981-08-31 00:06:53.330 ,6,0,1.,1.2,1.,1.2,1.,1.2,,0.0,,0.0
1981-08-31 00:06:54.530 ,6,0,0.,1.2,0.,1.2,0.,1.2,,0.0,,0.0
1981-08-31 00:06:55.730 ,6,0,0.,1.2,0.,1.2,0.,1.2,,0.0,,0.0
1981-08-31 00:06:56.930 ,6,0,0.,1.2,0.,1.2,0.,1.2,,0.0,,0.0
1981-08-31 00:06:58.130 ,6,0,0.,1.2,0.,1.2,0.,1.2,,0.0,,0.0
1981-08-31 00:06:59.330 ,6,0,0.,1.2,0.,1.2,0.,1.2,,0.0,,0.0
1981-08-31 00:07:00.530 ,6,0,0.,1.2,0.,1.2,0.,1.2,,0.0,,0.0
1981-08-31 00:07:01.730 ,6,0,0.,1.2,0.,1.2,0.,1.2,,0.0,,0.0
1981-08-31 00:07:02.930 ,6,0,0.,1.2,0.,1.2,0.,1.2,,0.0,,0.0
1981-08-31 00:07:04.130 ,6,0,0.,1.2,0.,1.2,0.,1.2,,0.0,,0.0
1981-08-31 00:07:05.330 ,6,0,0.,1.2,0.,1.2,0.,1.2,,0.0,,0.0
1981-08-31 00:07:06.530 ,6,0,0.,1.2,0.,1.2,0.,1.2,,0.0,,0.0
1981-08-31 00:07:07.730 ,6,0,0.,1.2,0.,1.2,0.,1.2,,0.0,,0.0
1981-08-31 00:07:08.930 ,6,0,0.,1.2,0.,1.2,0.,1.2,,0.0,,0.0
1981-08-31 00:07:10.130 ,6,0,0.,1.2,0.,1.2,0.,1.2,,0.0,,0.0
1981-08-31 00:07:11.330 ,5,0,0.,1.2,0.,1.2,0.,1.2,,0.0,,0.0
1981-08-31 00:07:12.530 ,5,0,0.,1.2,0.,1.2,0.,1.2,,0.0,,0.0
1981-08-31 00:07:13.730 ,5,0,0.,1.2,0.,1.2,0.,1.2,,0.0,,0.0
1981-08-31 00:07:14.930 ,5,0,1.,1.2,0.,1.2,0.,1.2,,0.0,,0.0
1981-08-31 00:07:16.130 ,5,0,0.,1.2,0.,1.2,0.,1.2,,0.0,,0.0
1981-08-31 00:07:17.330 ,5,0,0.,1.2,0.,1.2,0.,1.2,,0.0,,0.0
1981-08-31 00:07:18.530 ,5,0,0.,1.2,0.,1.2,0.,1.2,,0.0,,0.0
1981-08-31 00:07:19.730 ,5,0,0.,1.2,0.,1.2,0.,1.2,,0.0,,0.0
1981-08-31 00:07:20.930 ,5,0,0.,1.2,0.,1.2,0.,1.2,,0.0,,0.0
1981-08-31 00:07:22.130 ,5,0,0.,1.2,0.,1.2,0.,1.2,,0.0,,0.0
1981-08-31 00:07:23.330 ,5,0,0.,1.2,0.,1.2,0.,1.2,,0.0,,0.0
1981-08-31 00:07:24.530 ,5,0,1.,1.2,0.,1.2,0.,1.2,,0.0,,0.0
1981-08-31 00:07:25.730 ,5,0,0.,1.2,0.,1.2,0.,1.2,,0.0,,0.0
1981-08-31 00:07:26.930 ,5,0,0.,1.2,0.,1.2,0.,1.2,,0.0,,0.0
1981-08-31 00:07:28.130 ,5,0,1.,1.2,1.,1.2,1.,1.2,,0.0,,0.0
1981-08-31 00:07:29.330 ,5,0,0.,1.2,0.,1.2,0.,1.2,,0.0,,0.0
1981-08-31 00:07:30.530 ,5,0,0.,1.2,0.,1.2,0.,1.2,,0.0,,0.0
1981-08-31 00:07:31.730 ,5,0,0.,1.2,0.,1.2,0.,1.2,,0.0,,0.0
1981-08-31 00:07:32.930 ,5,0,0.,1.2,0.,1.2,0.,1.2,,0.0,,0.0
1981-08-31 00:07:34.130 ,5,0,1.,1.2,1.,1.2,0.,1.2,,0.0,,0.0
1981-08-31 00:07:35.330 ,4,0,0.,1.2,0.,1.2,0.,1.2,,0.0,,0.0
1981-08-31 00:07:36.530 ,4,0,0.,1.2,0.,1.2,0.,1.2,,0.0,,0.0
1981-08-31 00:07:37.730 ,4,0,0.,1.2,0.,1.2,0.,1.2,,0.0,,0.0
1981-08-31 00:07:38.930 ,4,0,0.,1.2,0.,1.2,0.,1.2,,0.0,,0.0
1981-08-31 00:07:40.130 ,4,0,1.,1.2,0.,1.2,0.,1.2,,0.0,,0.0
1981-08-31 00:07:41.330 ,4,0,0.,1.2,0.,1.2,0.,1.2,,0.0,,0.0
1981-08-31 00:07:42.530 ,4,0,0.,1.2,0.,1.2,0.,1.2,,0.0,,0.0
1981-08-31 00:07:43.730 ,4,0,0.,1.2,0.,1.2,0.,1.2,,0.0,,0.0
1981-08-31 00:07:44.930 ,4,0,0.,1.2,0.,1.2,0.,1.2,,0.0,,0.0
1981-08-31 00:07:46.130 ,4,0,0.,1.2,0.,1.2,0.,1.2,,0.0,,0.0
1981-08-31 00:07:47.330 ,4,0,1.,1.2,0.,1.2,0.,1.2,,0.0,,0.0
1981-08-31 00:07:48.530 ,4,0,0.,1.2,0.,1.2,0.,1.2,,0.0,,0.0
1981-08-31 00:07:49.730 ,4,0,0.,1.2,0.,1.2,0.,1.2,,0.0,,0.0
1981-08-31 00:07:50.930 ,4,0,0.,1.2,0.,1.2,0.,1.2,,0.0,,0.0
1981-08-31 00:07:52.130 ,4,0,0.,1.2,0.,1.2,0.,1.2,,0.0,,0.0
1981-08-31 00:07:53.330 ,4,0,0.,1.2,0.,1.2,0.,1.2,,0.0,,0.0
1981-08-31 00:07:54.530 ,4,0,0.,1.2,0.,1.2,0.,1.2,,0.0,,0.0
1981-08-31 00:07:55.730 ,4,0,1.,1.2,0.,1.2,0.,1.2,,0.0,,0.0
1981-08-31 00:07:56.930 ,4,0,1.,1.2,1.,1.2,0.,1.2,,0.0,,0.0
1981-08-31 00:07:58.130 ,4,0,0.,1.2,0.,1.2,0.,1.2,,0.0,,0.0
1981-08-31 00:07:59.330 ,3,0,0.,1.2,0.,1.2,0.,1.2,,0.0,,0.0
1981-08-31 00:08:00.530 ,3,0,0.,1.2,0.,1.2,0.,1.2,,0.0,,0.0
1981-08-31 00:08:01.730 ,3,0,0.,1.2,0.,1.2,0.,1.2,,0.0,,0.0
1981-08-31 00:08:02.930 ,3,0,0.,1.2,0.,1.2,0.,1.2,,0.0,,0.0
1981-08-31 00:08:04.130 ,3,0,0.,1.2,0.,1.2,0.,1.2,,0.0,,0.0
1981-08-31 00:08:05.330 ,3,0,0.,1.2,0.,1.2,0.,1.2,,0.0,,0.0
1981-08-31 00:08:06.530 ,3,0,0.,1.2,0.,1.2,0.,1.2,,0.0,,0.0
1981-08-31 00:08:07.730 ,3,0,0.,1.2,0.,1.2,0.,1.2,,0.0,,0.0
1981-08-31 00:08:08.930 ,3,0,0.,1.2,0.,1.2,0.,1.2,,0.0,,0.0
1981-08-31 00:08:10.130 ,3,0,0.,1.2,0.,1.2,0.,1.2,,0.0,,0.0
1981-08-31 00:08:11.330 ,3,0,0.,1.2,0.,1.2,0.,1.2,,0.0,,0.0
1981-08-31 00:08:12.530 ,3,0,0.,1.2,0.,1.2,0.,1.2,,0.0,,0.0